| time (UTC) | temp C | wind direction | speed KPH | gust KPH | rain 1hr cm | rain 24hr cm | rain mn cm | humidity % | barometer mb |
| 20260903213304 | 33 | 303 | 0.0 | 1.6 | 0.00 | 0.00 | 0.00 | 62 | 1013.2 |
| 20260903212404 | 33 | 250 | 1.6 | 3.2 | 0.00 | 0.00 | 0.00 | 62 | 1013.1 |
| 20260903211558 | 33 | 296 | 0.0 | 3.2 | 0.00 | 0.00 | 0.00 | 62 | 1013.1 |
| 20260903210603 | 33 | 219 | 0.0 | 3.2 | 0.00 | 0.00 | 0.00 | 63 | 1013.2 |
| 20260903205704 | 33 | 308 | 1.6 | 1.6 | 0.00 | 0.00 | 0.00 | 61 | 1013.2 |
| 20260903204804 | 33 | 23 | 0.0 | 1.6 | 0.00 | 0.00 | 0.00 | 62 | 1013.3 |
| 20260903203904 | 33 | 320 | 1.6 | 1.6 | 0.00 | 0.00 | 0.00 | 61 | 1013.3 |
| 20260903203004 | 33 | 172 | 1.6 | 8.0 | 0.00 | 0.00 | 0.00 | 60 | 1013.4 |
| 20260903202837 | 33 | 203 | 0.0 | 1.6 | 0.00 | 0.00 | 0.00 | 61 | 1013.4 |
| 20260903201937 | 33 | 304 | 1.6 | 4.8 | 0.00 | 0.00 | 0.00 | 60 | 1013.5 |
| 20260903201038 | 33 | 277 | 1.6 | 3.2 | 0.00 | 0.00 | 0.00 | 62 | 1013.6 |
| 20260903200137 | 33 | 303 | 3.2 | 4.8 | 0.00 | 0.00 | 0.00 | 61 | 1013.8 |
| 20260903195239 | 33 | 119 | 0.0 | 3.2 | 0.00 | 0.00 | 0.00 | 60 | 1014.3 |
| 20260903194338 | 33 | 277 | 1.6 | 4.8 | 0.00 | 0.00 | 0.00 | 61 | 1014.4 |
| 20260903192538 | 33 | 136 | 1.6 | 4.8 | 0.00 | 0.00 | 0.00 | 60 | 1014.5 |
| 20260903191638 | 33 | 307 | 1.6 | 4.8 | 0.00 | 0.00 | 0.00 | 60 | 1014.7 |
| 20260903190738 | 34 | 298 | 1.6 | 4.8 | 0.00 | 0.00 | 0.00 | 60 | 1014.8 |
| 20260903185838 | 33 | 215 | 1.6 | 3.2 | 0.00 | 0.00 | 0.00 | 60 | 1014.8 |
| 20260903184938 | 33 | 300 | 1.6 | 1.6 | 0.00 | 0.00 | 0.00 | 61 | 1014.8 |
| 20260903184037 | 33 | 103 | 0.0 | 4.8 | 0.00 | 0.00 | 0.00 | 62 | 1014.8 |
| 20260903183137 | 33 | 307 | 0.0 | 3.2 | 0.00 | 0.00 | 0.00 | 63 | 1014.9 |
| 20260903182238 | 33 | 305 | 1.6 | 1.6 | 0.00 | 0.00 | 0.00 | 63 | 1015.0 |
| 20260903181338 | 33 | 281 | 1.6 | 3.2 | 0.00 | 0.00 | 0.00 | 64 | 1015.2 |
| 20260903180437 | 33 | 307 | 3.2 | 4.8 | 0.00 | 0.00 | 0.00 | 62 | 1015.2 |
| 20260903175539 | 33 | 304 | 1.6 | 8.0 | 0.00 | 0.00 | 0.00 | 64 | 1015.2 |
| 20260903174637 | 33 | 295 | 0.0 | 1.6 | 0.00 | 0.00 | 0.00 | 63 | 1015.4 |
| 20260903173737 | 33 | 309 | 3.2 | 4.8 | 0.00 | 0.00 | 0.00 | 65 | 1015.4 |
| 20260903172840 | 33 | 198 | 1.6 | 9.7 | 0.00 | 0.00 | 0.00 | 66 | 1015.4 |
| 20260903171937 | 33 | 348 | 0.0 | 1.6 | 0.00 | 0.00 | 0.00 | 67 | 1015.5 |
| 20260903171037 | 32 | 300 | 1.6 | 3.2 | 0.00 | 0.00 | 0.00 | 66 | 1015.6 |
| 20260903170137 | 32 | 176 | 0.0 | 3.2 | 0.00 | 0.00 | 0.00 | 69 | 1015.6 |
| 20260903165237 | 32 | 305 | 3.2 | 11.3 | 0.00 | 0.00 | 0.00 | 67 | 1015.7 |
| 20260903164337 | 32 | 317 | 0.0 | 3.2 | 0.00 | 0.00 | 0.00 | 69 | 1015.8 |
| 20260903163438 | 32 | 306 | 1.6 | 4.8 | 0.00 | 0.00 | 0.00 | 70 | 1015.9 |
| 20260903162538 | 31 | 302 | 1.6 | 3.2 | 0.00 | 0.00 | 0.00 | 70 | 1015.9 |
| 20260903160738 | 31 | 185 | 1.6 | 3.2 | 0.00 | 0.00 | 0.00 | 72 | 1016.2 |
| 20260903155836 | 31 | 316 | 1.6 | 4.8 | 0.00 | 0.00 | 0.00 | 72 | 1016.2 |
| 20260903154938 | 31 | 307 | 3.2 | 4.8 | 0.00 | 0.00 | 0.00 | 73 | 1016.1 |
| 20260903154037 | 31 | 148 | 0.0 | 3.2 | 0.00 | 0.00 | 0.00 | 73 | 1016.1 |
| 20260903153137 | 31 | 195 | 1.6 | 3.2 | 0.00 | 0.00 | 0.00 | 73 | 1016.1 |
| 20260903152237 | 30 | 176 | 0.0 | 3.2 | 0.00 | 0.00 | 0.00 | 75 | 1016.1 |
| 20260903151338 | 30 | 236 | 0.0 | 1.6 | 0.00 | 0.00 | 0.00 | 77 | 1016.0 |
| 20260903150437 | 29 | 305 | 1.6 | 4.8 | 0.00 | 0.00 | 0.00 | 77 | 1016.1 |
| 20260903145538 | 28 | 295 | 0.0 | 4.8 | 0.00 | 0.00 | 0.00 | 79 | 1016.1 |
| 20260903144638 | 28 | 156 | 0.0 | 3.2 | 0.00 | 0.00 | 0.00 | 80 | 1016.1 |
| 20260903143737 | 28 | 312 | 0.0 | 1.6 | 0.00 | 0.00 | 0.00 | 80 | 1016.2 |
| 20260903142958 | 27 | 310 | 1.6 | 4.8 | 0.00 | 0.00 | 0.00 | 82 | 1016.1 |
| 20260903142915 | 27 | 310 | 1.6 | 4.8 | 0.00 | 0.00 | 0.00 | 82 | 1016.1 |
| 20260903142837 | 27 | 310 | 1.6 | 4.8 | 0.00 | 0.00 | 0.00 | 82 | 1016.1 |
| 20260903141937 | 27 | 232 | 1.6 | 4.8 | 0.00 | 0.00 | 0.00 | 83 | 1016.2 |
| 20260903141038 | 27 | 141 | 0.0 | 1.6 | 0.00 | 0.00 | 0.00 | 84 | 1016.3 |
| 20260903140137 | 26 | 289 | 0.0 | 1.6 | 0.00 | 0.00 | 0.00 | 84 | 1016.4 |
| 20260903135242 | 26 | 304 | 0.0 | 0.0 | 0.00 | 0.00 | 0.00 | 86 | 1016.6 |
| 20260903134457 | 25 | 309 | 0.0 | 0.0 | 0.00 | 0.00 | 0.00 | 86 | 1016.7 |
| 20260903134425 | 25 | 309 | 0.0 | 0.0 | 0.00 | 0.00 | 0.00 | 86 | 1016.7 |
| 20260903134338 | 25 | 309 | 0.0 | 0.0 | 0.00 | 0.00 | 0.00 | 86 | 1016.7 |
| 20260903133437 | 25 | 219 | 0.0 | 1.6 | 0.00 | 0.00 | 0.00 | 86 | 1016.7 |
| 20260903132921 | 25 | 207 | 0.0 | 0.0 | 0.00 | 0.00 | 0.00 | 87 | 1016.7 |
| 20260903132540 | 25 | 207 | 0.0 | 0.0 | 0.00 | 0.00 | 0.00 | 87 | 1016.7 |
| 20260903132008 | 24 | 165 | 0.0 | 0.0 | 0.00 | 0.00 | 0.00 | 87 | 1016.9 |
| 20260903131711 | 24 | 165 | 0.0 | 0.0 | 0.00 | 0.00 | 0.00 | 87 | 1016.9 |
| 20260903131639 | 24 | 165 | 0.0 | 0.0 | 0.00 | 0.00 | 0.00 | 87 | 1016.9 |
| 20260903131004 | 24 | 165 | 0.0 | 0.0 | 0.00 | 0.00 | 0.00 | 88 | 1016.9 |
| 20260903130841 | 24 | 165 | 0.0 | 0.0 | 0.00 | 0.00 | 0.00 | 88 | 1016.9 |
| 20260903130739 | 24 | 165 | 0.0 | 0.0 | 0.00 | 0.00 | 0.00 | 88 | 1016.9 |
| 20260903130010 | 23 | 185 | 0.0 | 0.0 | 0.00 | 0.00 | 0.00 | 88 | 1016.9 |
| 20260903125931 | 23 | 185 | 0.0 | 0.0 | 0.00 | 0.00 | 0.00 | 88 | 1016.9 |
| 20260903125837 | 23 | 185 | 0.0 | 0.0 | 0.00 | 0.00 | 0.00 | 88 | 1016.9 |
| 20260903125350 | 23 | 185 | 0.0 | 0.0 | 0.00 | 0.00 | 0.00 | 88 | 1017.0 |
| 20260903125147 | 23 | 185 | 0.0 | 0.0 | 0.00 | 0.00 | 0.00 | 88 | 1017.0 |
| 20260903125048 | 23 | 185 | 0.0 | 0.0 | 0.00 | 0.00 | 0.00 | 88 | 1017.0 |
| 20260903125012 | 23 | 185 | 0.0 | 0.0 | 0.00 | 0.00 | 0.00 | 88 | 1017.0 |
| 20260903124941 | 23 | 185 | 0.0 | 0.0 | 0.00 | 0.00 | 0.00 | 88 | 1017.0 |
| 20260903124111 | 23 | 185 | 0.0 | 0.0 | 0.00 | 0.00 | 0.00 | 89 | 1016.8 |
| 20260903124037 | 23 | 185 | 0.0 | 0.0 | 0.00 | 0.00 | 0.00 | 89 | 1016.8 |
| 20260903123138 | 23 | 185 | 0.0 | 0.0 | 0.00 | 0.00 | 0.00 | 88 | 1016.8 |
| 20260903122353 | 22 | 185 | 0.0 | 0.0 | 0.00 | 0.00 | 0.00 | 88 | 1016.8 |
| 20260903122311 | 22 | 185 | 0.0 | 0.0 | 0.00 | 0.00 | 0.00 | 88 | 1016.8 |
| 20260903122240 | 22 | 185 | 0.0 | 0.0 | 0.00 | 0.00 | 0.00 | 88 | 1016.8 |
| 20260903121339 | 23 | 185 | 0.0 | 0.0 | 0.00 | 0.00 | 0.00 | 88 | 1016.9 |
| 20260903120437 | 23 | 185 | 0.0 | 0.0 | 0.00 | 0.00 | 0.00 | 88 | 1016.8 |
| 20260903115733 | 22 | 185 | 0.0 | 0.0 | 0.00 | 0.00 | 0.00 | 88 | 1016.7 |
| 20260903115650 | 22 | 185 | 0.0 | 0.0 | 0.00 | 0.00 | 0.00 | 88 | 1016.7 |
| 20260903115537 | 22 | 185 | 0.0 | 0.0 | 0.00 | 0.00 | 0.00 | 88 | 1016.7 |
| 20260903114711 | 23 | 185 | 0.0 | 0.0 | 0.00 | 0.00 | 0.00 | 88 | 1016.7 |
| 20260903114640 | 23 | 185 | 0.0 | 0.0 | 0.00 | 0.00 | 0.00 | 88 | 1016.7 |
| 20260903112957 | 22 | 187 | 0.0 | 0.0 | 0.00 | 0.00 | 0.00 | 88 | 1016.5 |
| 20260903112909 | 22 | 187 | 0.0 | 0.0 | 0.00 | 0.00 | 0.00 | 88 | 1016.5 |
| 20260903112837 | 22 | 187 | 0.0 | 0.0 | 0.00 | 0.00 | 0.00 | 88 | 1016.5 |
| 20260903112020 | 22 | 187 | 0.0 | 0.0 | 0.00 | 0.00 | 0.00 | 87 | 1016.4 |
| 20260903111939 | 22 | 187 | 0.0 | 0.0 | 0.00 | 0.00 | 0.00 | 87 | 1016.4 |
| 20260903111038 | 23 | 187 | 0.0 | 0.0 | 0.00 | 0.00 | 0.00 | 87 | 1016.4 |
| 20260903110136 | 23 | 187 | 0.0 | 0.0 | 0.00 | 0.00 | 0.00 | 86 | 1016.1 |
| 20260903105238 | 23 | 187 | 0.0 | 0.0 | 0.00 | 0.00 | 0.00 | 86 | 1016.0 |
| 20260903104408 | 23 | 187 | 0.0 | 0.0 | 0.00 | 0.00 | 0.00 | 86 | 1016.0 |
| 20260903104336 | 23 | 187 | 0.0 | 0.0 | 0.00 | 0.00 | 0.00 | 86 | 1016.0 |
| 20260903103516 | 23 | 187 | 0.0 | 0.0 | 0.00 | 0.00 | 0.00 | 86 | 1015.9 |
| 20260903103440 | 23 | 187 | 0.0 | 0.0 | 0.00 | 0.00 | 0.00 | 86 | 1015.9 |
| 20260903102621 | 23 | 169 | 0.0 | 0.0 | 0.00 | 0.00 | 0.00 | 86 | 1015.9 |
| 20260903102538 | 23 | 169 | 0.0 | 0.0 | 0.00 | 0.00 | 0.00 | 86 | 1015.9 |
| 20260903101638 | 23 | 167 | 0.0 | 0.0 | 0.00 | 0.00 | 0.00 | 86 | 1015.9 |
| 20260903100046 | 23 | 205 | 0.0 | 0.0 | 0.00 | 0.00 | 0.00 | 86 | 1015.7 |
| 20260903100000 | 23 | 205 | 0.0 | 0.0 | 0.00 | 0.00 | 0.00 | 86 | 1015.7 |
| 20260903095924 | 23 | 205 | 0.0 | 0.0 | 0.00 | 0.00 | 0.00 | 86 | 1015.7 |
| 20260903095838 | 23 | 205 | 0.0 | 0.0 | 0.00 | 0.00 | 0.00 | 86 | 1015.7 |
| 20260903095015 | 23 | 205 | 0.0 | 0.0 | 0.00 | 0.00 | 0.00 | 86 | 1015.6 |
| 20260903094943 | 23 | 205 | 0.0 | 0.0 | 0.00 | 0.00 | 0.00 | 86 | 1015.6 |
| 20260903094118 | 23 | 167 | 0.0 | 0.0 | 0.00 | 0.00 | 0.00 | 86 | 1015.8 |
| 20260903094038 | 23 | 167 | 0.0 | 0.0 | 0.00 | 0.00 | 0.00 | 86 | 1015.8 |
| 20260903092239 | 23 | 169 | 0.0 | 0.0 | 0.00 | 0.00 | 0.00 | 86 | 1015.8 |
| 20260903091428 | 23 | 169 | 0.0 | 0.0 | 0.00 | 0.00 | 0.00 | 86 | 1015.9 |
| 20260903091351 | 23 | 169 | 0.0 | 0.0 | 0.00 | 0.00 | 0.00 | 86 | 1015.9 |
| 20260903090439 | 23 | 169 | 0.0 | 0.0 | 0.00 | 0.00 | 0.00 | 86 | 1015.9 |
| 20260903085614 | 23 | 169 | 0.0 | 0.0 | 0.00 | 0.00 | 0.00 | 86 | 1015.9 |
| 20260903085537 | 23 | 169 | 0.0 | 0.0 | 0.00 | 0.00 | 0.00 | 86 | 1015.9 |
| 20260903084715 | 23 | 169 | 0.0 | 0.0 | 0.00 | 0.00 | 0.00 | 86 | 1015.9 |
| 20260903084639 | 23 | 169 | 0.0 | 0.0 | 0.00 | 0.00 | 0.00 | 86 | 1015.9 |
| 20260903083808 | 23 | 169 | 0.0 | 0.0 | 0.00 | 0.00 | 0.00 | 86 | 1015.9 |
| 20260903083737 | 23 | 169 | 0.0 | 0.0 | 0.00 | 0.00 | 0.00 | 86 | 1015.9 |
| 20260903082917 | 23 | 170 | 0.0 | 0.0 | 0.00 | 0.00 | 0.00 | 86 | 1015.9 |
| 20260903082838 | 23 | 170 | 0.0 | 0.0 | 0.00 | 0.00 | 0.00 | 86 | 1015.9 |
| 20260903082008 | 23 | 170 | 0.0 | 0.0 | 0.00 | 0.00 | 0.00 | 86 | 1015.9 |
| 20260903081937 | 23 | 170 | 0.0 | 0.0 | 0.00 | 0.00 | 0.00 | 86 | 1015.9 |
| 20260903081037 | 23 | 169 | 0.0 | 0.0 | 0.00 | 0.00 | 0.00 | 86 | 1015.8 |
| 20260903075239 | 23 | 173 | 0.0 | 0.0 | 0.00 | 0.00 | 0.00 | 86 | 1015.8 |
| 20260903074338 | 23 | 173 | 0.0 | 0.0 | 0.00 | 0.00 | 0.00 | 87 | 1015.8 |
| 20260903073440 | 23 | 173 | 0.0 | 0.0 | 0.00 | 0.00 | 0.00 | 87 | 1015.8 |
| 20260903072746 | 23 | 173 | 0.0 | 0.0 | 0.00 | 0.00 | 0.00 | 87 | 1015.9 |
| 20260903072707 | 23 | 173 | 0.0 | 0.0 | 0.00 | 0.00 | 0.00 | 87 | 1015.9 |
| 20260903072625 | 23 | 173 | 0.0 | 0.0 | 0.00 | 0.00 | 0.00 | 87 | 1015.9 |
| 20260903072538 | 23 | 173 | 0.0 | 0.0 | 0.00 | 0.00 | 0.00 | 87 | 1015.9 |
| 20260903071637 | 24 | 173 | 0.0 | 0.0 | 0.00 | 0.00 | 0.00 | 86 | 1015.8 |
| 20260903070844 | 24 | 173 | 0.0 | 0.0 | 0.00 | 0.00 | 0.00 | 86 | 1015.9 |
| 20260903070811 | 24 | 173 | 0.0 | 0.0 | 0.00 | 0.00 | 0.00 | 86 | 1015.9 |
| 20260903070738 | 24 | 173 | 0.0 | 0.0 | 0.00 | 0.00 | 0.00 | 86 | 1015.9 |
| 20260903065922 | 24 | 173 | 0.0 | 0.0 | 0.00 | 0.00 | 0.00 | 85 | 1015.8 |
| 20260903065837 | 24 | 173 | 0.0 | 0.0 | 0.00 | 0.00 | 0.00 | 85 | 1015.8 |
| 20260903065027 | 25 | 173 | 0.0 | 0.0 | 0.00 | 0.00 | 0.00 | 85 | 1015.9 |
| 20260903064937 | 25 | 173 | 0.0 | 0.0 | 0.00 | 0.00 | 0.00 | 85 | 1015.9 |
| 20260903064037 | 25 | 163 | 0.0 | 0.0 | 0.00 | 0.00 | 0.00 | 84 | 1016.0 |
| 20260903063142 | 25 | 168 | 0.0 | 0.0 | 0.00 | 0.00 | 0.00 | 84 | 1016.1 |
| 20260903061337 | 24 | 192 | 0.0 | 0.0 | 0.00 | 0.00 | 0.00 | 85 | 1016.5 |
| 20260903060438 | 24 | 207 | 0.0 | 0.0 | 0.00 | 0.00 | 0.00 | 85 | 1016.9 |
| 20260903055612 | 22 | 0 | 0.0 | 0.0 | 0.00 | 0.00 | 0.00 | 88 | 1017.3 |
| 20260903055537 | 22 | 0 | 0.0 | 0.0 | 0.00 | 0.00 | 0.00 | 88 | 1017.3 |
| 20260903054725 | 22 | 0 | 0.0 | 0.0 | 0.00 | 0.00 | 0.00 | 88 | 1017.1 |
| 20260903054638 | 22 | 0 | 0.0 | 0.0 | 0.00 | 0.00 | 0.00 | 88 | 1017.1 |
| 20260903053740 | 22 | 0 | 0.0 | 0.0 | 0.00 | 0.00 | 0.00 | 88 | 1017.2 |
| 20260903052009 | 22 | 0 | 0.0 | 0.0 | 0.00 | 0.00 | 0.00 | 88 | 1017.1 |
| 20260903051937 | 22 | 0 | 0.0 | 0.0 | 0.00 | 0.00 | 0.00 | 88 | 1017.1 |
| 20260903051037 | 22 | 0 | 0.0 | 0.0 | 0.00 | 0.00 | 0.00 | 88 | 1017.0 |
| 20260903050210 | 22 | 0 | 0.0 | 0.0 | 0.00 | 0.00 | 0.00 | 88 | 1017.0 |
| 20260903050138 | 22 | 0 | 0.0 | 0.0 | 0.00 | 0.00 | 0.00 | 88 | 1017.0 |
| 20260903045311 | 22 | 0 | 0.0 | 0.0 | 0.00 | 0.00 | 0.00 | 88 | 1017.0 |
| 20260903045238 | 22 | 0 | 0.0 | 0.0 | 0.00 | 0.00 | 0.00 | 88 | 1017.0 |
| 20260903044426 | 22 | 0 | 0.0 | 0.0 | 0.00 | 0.00 | 0.00 | 88 | 1016.8 |
| 20260903044338 | 22 | 0 | 0.0 | 0.0 | 0.00 | 0.00 | 0.00 | 88 | 1016.8 |
| 20260903043439 | 22 | 0 | 0.0 | 0.0 | 0.00 | 0.00 | 0.00 | 88 | 1016.7 |
| 20260903042623 | 22 | 0 | 0.0 | 0.0 | 0.00 | 0.00 | 0.00 | 88 | 1016.6 |
| 20260903042541 | 22 | 0 | 0.0 | 0.0 | 0.00 | 0.00 | 0.00 | 88 | 1016.6 |
| 20260903041713 | 22 | 0 | 0.0 | 0.0 | 0.00 | 0.00 | 0.00 | 88 | 1016.5 |
| 20260903041639 | 22 | 0 | 0.0 | 0.0 | 0.00 | 0.00 | 0.00 | 88 | 1016.5 |
| 20260903040811 | 22 | 0 | 0.0 | 0.0 | 0.00 | 0.00 | 0.00 | 88 | 1016.7 |
| 20260903040740 | 22 | 0 | 0.0 | 0.0 | 0.00 | 0.00 | 0.00 | 88 | 1016.7 |
| 20260903035837 | 22 | 0 | 0.0 | 0.0 | 0.00 | 0.00 | 0.00 | 88 | 1016.7 |
| 20260903034938 | 22 | 0 | 0.0 | 0.0 | 0.00 | 0.00 | 0.00 | 88 | 1016.7 |
| 20260903034130 | 22 | 0 | 0.0 | 0.0 | 0.00 | 0.00 | 0.00 | 88 | 1016.9 |
| 20260903034036 | 22 | 0 | 0.0 | 0.0 | 0.00 | 0.00 | 0.00 | 88 | 1016.9 |
| 20260903033248 | 22 | 0 | 0.0 | 0.0 | 0.00 | 0.00 | 0.00 | 88 | 1016.8 |
| 20260903033137 | 22 | 0 | 0.0 | 0.0 | 0.00 | 0.00 | 0.00 | 88 | 1016.8 |
| 20260903031338 | 22 | 0 | 0.0 | 0.0 | 0.00 | 0.00 | 0.00 | 88 | 1016.9 |
| 20260903030437 | 22 | 0 | 0.0 | 0.0 | 0.00 | 0.00 | 0.00 | 88 | 1017.1 |
| 20260903025610 | 22 | 0 | 0.0 | 0.0 | 0.00 | 0.00 | 0.00 | 88 | 1017.0 |
| 20260903025538 | 22 | 0 | 0.0 | 0.0 | 0.00 | 0.00 | 0.00 | 88 | 1017.0 |
| 20260903024719 | 22 | 0 | 0.0 | 0.0 | 0.00 | 0.00 | 0.00 | 88 | 1017.2 |
| 20260903024638 | 22 | 0 | 0.0 | 0.0 | 0.00 | 0.00 | 0.00 | 88 | 1017.2 |
| 20260903023738 | 22 | 0 | 0.0 | 0.0 | 0.00 | 0.00 | 0.00 | 88 | 1017.3 |
| 20260903022838 | 22 | 0 | 0.0 | 0.0 | 0.00 | 0.00 | 0.00 | 88 | 1017.2 |
| 20260903022731 | 22 | 0 | 0.0 | 0.0 | 0.00 | 0.00 | 0.00 | 88 | 1017.1 |
| 20260903021829 | 22 | 0 | 0.0 | 0.0 | 0.00 | 0.00 | 0.00 | 88 | 1017.2 |
| 20260903020930 | 22 | 0 | 0.0 | 0.0 | 0.00 | 0.00 | 0.00 | 88 | 1017.3 |
| 20260903020031 | 22 | 0 | 0.0 | 0.0 | 0.00 | 0.00 | 0.00 | 88 | 1017.2 |
| 20260903015133 | 22 | 0 | 0.0 | 0.0 | 0.00 | 0.00 | 0.00 | 88 | 1017.3 |
| 20260903014231 | 22 | 0 | 0.0 | 0.0 | 0.00 | 0.00 | 0.00 | 88 | 1017.3 |
| 20260903013331 | 22 | 0 | 0.0 | 0.0 | 0.00 | 0.00 | 0.00 | 88 | 1017.1 |
| 20260903012431 | 22 | 0 | 0.0 | 0.0 | 0.00 | 0.00 | 0.00 | 88 | 1017.0 |
| 20260903011530 | 22 | 0 | 0.0 | 0.0 | 0.00 | 0.00 | 0.00 | 88 | 1016.9 |
| 20260903010632 | 22 | 0 | 0.0 | 0.0 | 0.00 | 0.00 | 0.00 | 88 | 1016.9 |
| 20260903005730 | 22 | 0 | 0.0 | 0.0 | 0.00 | 0.00 | 0.00 | 88 | 1016.7 |
| 20260903004830 | 22 | 0 | 0.0 | 0.0 | 0.00 | 0.00 | 0.00 | 88 | 1016.6 |
| 20260903003930 | 22 | 0 | 0.0 | 0.0 | 0.00 | 0.00 | 0.00 | 88 | 1016.6 |
| 20260903003245 | 22 | 0 | 0.0 | 0.0 | 0.00 | 0.00 | 0.00 | 88 | 1016.6 |
| 20260903003030 | 22 | 0 | 0.0 | 0.0 | 0.00 | 0.00 | 0.00 | 88 | 1016.6 |
| 20260903002130 | 22 | 0 | 0.0 | 0.0 | 0.00 | 0.00 | 0.00 | 88 | 1016.5 |
| 20260903001231 | 22 | 0 | 0.0 | 0.0 | 0.00 | 0.00 | 0.00 | 88 | 1016.6 |
| 20260903000332 | 22 | 0 | 0.0 | 0.0 | 0.00 | 0.00 | 0.00 | 88 | 1016.6 |
| 20260902235431 | 22 | 0 | 0.0 | 0.0 | 0.00 | 0.00 | 0.00 | 88 | 1016.5 |
| 20260902231830 | 22 | 0 | 0.0 | 0.0 | 0.00 | 0.00 | 0.00 | 88 | 1016.5 |
| 20260902230931 | 22 | 0 | 0.0 | 0.0 | 0.00 | 0.00 | 0.00 | 88 | 1016.5 |
| 20260902230030 | 22 | 0 | 0.0 | 0.0 | 0.00 | 0.00 | 0.00 | 88 | 1016.5 |
| 20260902225130 | 22 | 0 | 0.0 | 0.0 | 0.00 | 0.00 | 0.00 | 88 | 1016.6 |
| 20260902224230 | 22 | 0 | 0.0 | 0.0 | 0.00 | 0.00 | 0.00 | 88 | 1016.6 |
| 20260902223331 | 22 | 0 | 0.0 | 0.0 | 0.00 | 0.00 | 0.00 | 88 | 1016.6 |
| 20260902222429 | 22 | 0 | 0.0 | 0.0 | 0.00 | 0.00 | 0.00 | 88 | 1016.7 |
| 20260902221530 | 22 | 0 | 0.0 | 0.0 | 0.00 | 0.00 | 0.00 | 88 | 1016.6 |
| 20260902220632 | 22 | 0 | 0.0 | 0.0 | 0.00 | 0.00 | 0.00 | 88 | 1016.8 |
| 20260902215730 | 22 | 0 | 0.0 | 0.0 | 0.00 | 0.00 | 0.00 | 88 | 1016.7 |
| 20260902214831 | 22 | 0 | 0.0 | 0.0 | 0.00 | 0.00 | 0.00 | 88 | 1016.7 |
| 20260902213931 | 22 | 0 | 0.0 | 0.0 | 0.00 | 0.00 | 0.00 | 88 | 1016.8 |